cliquez pour ajouter le site Runraid à vos favoris  English version (google)  Retour à l'accueil Ecrire à l'auteur du site Runraid : Michel Jourdan



Les prochaines courses


Les derniers résultats

cliquez pour visualiser la page complète relatant la chronologie des éruptions du Piton de la Fournaise
éruptions Piton de la Fournaise


Ile de La Réunion

 Diagonale des Fous 

Ecrire au créateur du site : Michel Jourdan
Contact


2013-03-10 - Trail des Cabornis - 25 km

Pour consulter le palmarès d'un coureur, un clic sur son nom !

Vous avez des remarques, corrections, ... sur ces résultats , un clic sur --> pour me transmettre toute information concernant les classements


Trail des Cabornis - 25 km - 2013 : classement des 599 finishers
Place Nom Temps Cat. Club Sexe Clt/cat.
Place Nom Temps Cat. Club Sexe Clt/cat.
1 MEYSSAT Emmanuel 02:03:27 SEM TEAM ASICS M 3
2 BONIN Arnaud 02:05:44 SEM - M 103
3 PASERO Mikael 02:07:25 V1M TEAM NEW BALANCE M 11
4 AVRILLON Stephane 02:10:39 SEM - M 46
5 PRUVOST Sylvere 02:11:20 SEM - M 697
6 SAVOY OLIVIER 02:16:28 SEM TEAM TECNICA M 754
7 SENECHAL NICOLAS 02:17:41 SEM ACVS M 761
8 POUGE Jeremy 02:18:15 SEM XBIONIC M 689
9 LAFAYE CELINE 02:20:47 SEF TEAM SCOTT F 1ere F 494
10 MOUTON bertrand 02:20:47 ESM maxi race M 623
11 FERBER christophe 02:21:01 V1M ASVEL Triathlon M 339
12 MAIRY florian 02:21:21 ESM - M 552
13 GADET FABIEN 02:22:17 SEM - M 370
14 LAKREMI EDDY 02:22:32 SEM CS BOURGOIN JALLIEU M 496
15 DUC Stephanie 02:22:33 V1F TERRE DE RUNNING F 2eme F 300
16 FERRANDO Gaetan 02:23:24 SEM TEAM GARMIN M 341
17 CAZEAUX Stephane 02:23:47 V1M st priest triathlon M 926
18 CHAVALLARD pierre 02:25:57 SEM UAC MORESTEL M 187
19 ROCHE Emmanuel 02:26:49 SEM Saone Mont d'Or SMON M 723
20 DEWALLE Christel 02:27:19 SEF TERRE DE RUNNING F 3eme F 282
21 DEYGAS Willy 02:27:19 ESM - M 283
22 JEU Sebastien 02:28:44 SEM SCOTT M 469
23 RABIER Cyril 02:29:46 V1M - M 707
24 VAN DER MEULEN Nicolas 02:30:23 ESM CIA M 820
25 GORCE Josselin 02:31:30 SEM - M 407
26 TOURNAIRE Virgile 02:32:51 V1M COURIR ENSEMBLE M 919
27 GUILLOT Jean Baptiste 02:34:13 SEM EA CHAMBERY M 433
28 PAULHE Romain 02:34:13 SEM - M 655
29 BOREL Guillaume 02:34:15 SEM Les Trailers des Aravis M 109
30 JAUSSAUD jean denis 02:34:31 V2M - M 464
31 DARMEDRU Samuel 02:34:55 SEM vaulx en velin triathlon M 867
32 CHATEAU Samuel 02:35:05 SEM X SPORT DRoME M 183
33 PERRIN GILLES 02:35:37 V1M - M 909
34 LALA regis 02:35:45 SEM VELO CLUB DECINES M 497
35 REMY Vincent 02:35:51 SEM ASM RUNNING M 718
36 BLANCHON DANIEL 02:36:51 SEM - M 96
37 VALLET Nicolas 02:37:25 SEM - M 945
38 YVOREL Pascal 02:37:29 V2M ASM MERIEUX M 842
39 PRAMAYON Renaud 02:37:46 SEM COUREURS OUEST LYONNAIS M 692
40 BERRY Paul 02:37:46 V1M - M 79
41 FLEURY jeffrey 02:38:14 SEM - M 344
42 MATHOT Jean Francois 02:39:07 V2M - M 578
43 CUZIN ROMARIC 02:39:13 SEM - M 237
44 PREVOST romain 02:39:20 V1M ESL FRANCHEVILLE M 695
45 DE LA TEYSSONNIeRE Nicolas 02:39:32 SEM - M 249
46 HENRIET thierry 02:39:55 V1M Triathlon Nancy Lorraine M 440
47 CHATEAU Frederic 02:40:15 V1M - M 182
48 BIe Nicolas 02:40:22 SEM Union Montelimar Sports M 90
49 MAISONNEUVE pascal 02:42:02 V1M Jogging club VERANNE M 553
50 ABERKANE TAHAR 02:42:05 V1M CORCY ENDURANCE M 15
51 JACQUEMIN Thibault 02:42:30 SEM CIA M 888
52 RAPHOZ GREGORY 02:42:55 V1M - M 715
53 CHAPRIER Benjamin 02:43:01 SEM CORCY ENDURANCE M 171
54 BRUNET thibault 02:43:27 ESM - M 130
55 MOSCATELLI Cedric 02:43:39 V1M MARSEILLE TRAIL CLUB M 617
56 JUSCHKA Jordane 02:43:46 SEM - M 889
57 DOUSSOT Laurent 02:44:04 V1M Les Trailers des Aravis M 293
58 HEYD ADRIEN 02:44:26 SEM AUCUNE M 441
59 PEUCHOT Bernard 02:45:15 V2M ASM MERIEUX M 666
60 LATREILLE Franck 02:45:33 V1M - M 505
61 QUERE Guillaume 02:45:40 SEM - M 705
62 BONNET Ludovic 02:46:00 V1M Tri Villefranche M 106
63 CHATEAU Zuzana 02:46:08 SEF ASA F 4eme feminine 181
64 CHAXEL Eric 02:46:21 SEM - M 191
65 CLUZEL Cedric 02:46:32 SEM EAB M 208
66 FENET Ludovic 02:46:35 V1M - M 338
67 PIERRE BES Philippe 02:46:42 V2M - M 676
68 POITTEVIN Matthieu 02:47:22 V1M ANV M 682
69 BERCHOUX Julien 02:47:44 SEM - M 67
70 MERIAUX Martin 02:47:46 SEM - M 588
71 BERGER Christian 02:47:59 V2M - M 69
72 BONICI Thomas 02:48:10 SEM - M 102
73 BOUTON thierry 02:48:36 V1M Jogging club VERANNE M 117
74 HUBERT EMERIC 02:49:07 SEM - M 447
75 ARCIS Vincent 02:49:12 SEM CIA M 31
76 RABOURDIN Thomas 02:49:24 ESM - M 708
77 JANET Thomas 02:49:52 SEM Entente Sud Lyonnais M 460
78 GUILLOD VINCENT 02:49:53 SEM Lyon athle M 432
79 WELSCHINGER Jean Yves 02:50:09 SEM - M 840
80 DUBOIS Cathy 02:50:10 V1F - F 5eme feminine 940
81 JACOB emilien 02:50:22 SEM - M 453
82 GRESSIER Yoan 02:50:47 SEM - M 419
83 CHATAING SEBASTIEN 02:50:55 SEM - M 180
84 MOUNIER franck 02:50:57 SEM - M 622
85 JORAND GUILLAUME 02:51:10 SEM - M 473
86 LEDREUX Xavier 02:51:14 V1M RILLIEUX TRIATHLON M 524
87 ALBRIEUX Florian 02:51:17 SEM - M 22
88 COLOM Matthieu 02:51:21 ESM - M 212
89 PERRIER Bruno 02:51:22 SEM - M 661
90 LYONNET Sebastien 02:51:34 V1M aviron club lyon caluire M 546
91 DREVON fabrice 02:51:42 SEM - M 295
92 HOAREAU Jean Fabrice 02:51:57 V1M BSP M 443
93 DJOZIKIAN Julien 02:51:57 SEM Runnosphere M 288
94 BIDARD Philippe 02:51:58 SEM - M 943
95 DUBOST alain 02:52:13 V2M - M 299
96 PAJEAN Patrice 02:52:31 V1M TEAM TECNICA M 646
97 BOY Ludovic 02:52:45 SEM - M 120
98 GIROIR Frederic 02:53:01 SEM - M 401
99 LATIL Augustin 02:53:06 SEM - M 504
100 NAUDIN regis 02:53:34 V1M - M 902
101 GIRAUD serge 02:53:52 V1M - M 879
102 DELATTRE Benjamin 02:54:33 SEM - M 259
103 PICARD julien 02:54:55 SEM - M 672
104 COFFY ERIC 02:55:05 V2M - M 210
105 FEVRIER vincent 02:55:09 SEM - M 342
106 VIRISSEL thomas 02:55:17 SEM - M 923
107 RUCHON SYLVAIN 02:55:38 SEM - M 740
108 BEYSSEN CYRILLE 02:55:43 V1M FOULEE VOURLOISE M 86
109 DUJARDIN Christophe 02:55:43 V1M FOULEE VOURLOISE M 304
110 DUMAS Francois 02:55:46 SEM - M 306
111 LEBETTE florian 02:55:47 SEM - M 516
112 EGRAZ Patrice 02:55:56 SEM TERRE DE RUNNING M 315
113 CHASSAGNETTE franck 02:55:57 SEM - M 177
114 REYMOND julien 02:56:46 SEM - M 719
115 FRANCO Antonio 02:56:53 V1M - M 360
116 GAINCHE Thomas 02:56:58 ESM - M 377
117 SALADINO Bruno 02:56:58 SEM - M 746
118 SAOUZANET DOMINIQUE 02:57:33 SEM - M 751
119 DAIRAIN Matthieu 02:57:37 SEM - M 866
120 FRNO cedric 02:57:51 SEM ASVEL Triathlon M 363
121 ODORICO cedric 02:58:05 SEM - M 642
122 AMALVICT Marc 02:58:06 V1M - M 930
123 FALQ Alexandre 02:58:09 SEM AC ondaine firminy M 329
124 LABASTE Francois 02:58:09 SEM - M 488
125 CHWASTEK CHRISTIAN 02:58:13 V1M ATHLETIC CLUB TASSIN M 202
126 DEYCARD CHRISTOPHE 02:58:28 V1M - M 868
127 BEROUD ANTOINE 02:58:28 SEM - M 849
128 COLOGNE Jordan 02:58:52 SEM - M 211
129 GERDEAUX Francois 02:59:04 SEM Decines Meyzieu Athletism M 877
130 BOUFFARD Matthieu 02:59:09 SEM - M 113
131 BARBARESI nicolas 02:59:15 SEM TRICLAIR RILLIEUX M 54
132 PONSIN Olivier 02:59:16 V1M US OYONNAX M 685
133 TReMEAU David 02:59:23 SEM Team Craft M 807
134 METAY Yohann 02:59:48 SEM - M 592
135 AUBINEAU Louis 02:59:49 SEM Bron'z'amis M 39
136 QUINQUIS nicolas 02:59:59 ESM - M 706
137 ALLOMBERT FRANCK 03:00:02 V1M - M 924
138 VIDAL Anne Laure 03:00:04 SEF - F 6eme feminine 929
139 NEVES PEREIRA Paulo 03:00:07 V1M - M 633
140 MOUETTE edouard 03:00:08 SEM RILLIEUX TRIATHLON M 620
141 DURET Aurelien 03:00:22 SEM - F 311
142 BRUAS Christophe 03:00:30 SEM - M 856
143 SAINT GERMAIN JOHAN 03:00:41 SEM - M 744
144 MATHEVET fabien 03:00:46 SEM - M 576
145 BABOU Philippe 03:00:56 V1M - M 938
146 FOURN Olivier 03:00:58 SEM - M 356
147 MARC FIORUCCI Marc 03:01:04 SEM - M 559
148 ALBRIEUX CLEMENT 03:02:06 SEM - M 23
149 FAURE david 03:02:08 V1M - M 332
150 BLANCHIN Mathieu 03:02:11 SEM - M 95
151 GUILLAUMOT charles 03:02:32 SEM Crewstach M 430
152 SALMON CLAUDE 03:03:23 SEM - M 748
153 JACQUIER Stephane 03:03:41 V1M VOLODALEN M 456
154 LEVEUGLE Lionel 03:03:47 V1M - M 533
155 JEANNIN Marine 03:04:05 SEF RILLIEUX TRAITHLON F 7eme feminine 468
156 DEVISY alain 03:04:06 V1M - M 280
157 ALLEMAND CHRISTOPHE 03:04:09 V1M - M 24
158 BLANCO franck 03:04:18 V1M - M 97
159 CHOLLETON Ludovic 03:04:20 V1M - M 197
160 DENIS Thomas 03:04:25 SEM CAP VERCORS M 266
161 POILLOT Laurent 03:04:36 V1M - M 680
162 LELEU alexandre 03:04:41 V1M LES JOGGEURS DE LA CHOUET M 526
163 TROUVEL didier 03:05:03 SEM - M 806
164 PELLETIER JACQUES 03:05:19 V2M - M 657
165 SEDILLEOU Cedric 03:05:21 SEM - M 757
166 MAZILLER Damien 03:05:21 SEM - M 583
167 GUERREIRO julio 03:05:21 V1M - M 425
168 COURIVAUD Nicolas 03:05:44 SEM - M 224
169 FOUILLEUL NICOLAS 03:05:46 SEM - M 352
170 VOLCK Jerome 03:05:46 SEM - M 834
171 MAZERAN FRANCOIS XAVIER 03:06:02 SEM Saone Mont d'Or SMON M 582
172 BERNARD Raphael 03:06:10 SEM amberieu marathon M 72
173 CARLET Franck 03:06:10 V1M - M 145
174 STEEN Benjamin 03:06:14 SEM - M 772
175 MEHDI BOUHEDDI Mehdi 03:06:23 SEM - M 586
176 MAHINC GREGORY 03:06:25 SEM - M 551
177 LEON Daniel 03:06:25 V1M - M 528
178 LECOMTE charlotte 03:06:32 SEF - F 520
179 TUGAUT Nicolas 03:06:33 SEM - M 808
180 VIRET Sebastien 03:06:38 SEM - M 832
181 GAMOND JULIEN 03:06:41 SEM - M 380
182 GOLDFARD Herve 03:06:42 SEM au cu n M 405
183 CARRON DIT JEANTON claude 03:06:46 V2M - M 150
184 KARSZNIA Gerald 03:06:49 SEM TEAM RAIDLIGHT M 484
185 COMBY STEPHANE 03:07:07 V1M - M 215
186 DE OLIVEIRA Joachim 03:07:27 SEM Beaujol'Aventure Trail M 251
187 LOCATELLI louis 03:07:34 SEM - M 540
188 PICCININ stephane 03:07:59 SEM - M 673
189 MAUPAS DAVID 03:08:05 SEM - M 580
190 BLONDEL Brice 03:08:13 SEM - M 98
191 JALARD Remi 03:08:21 SEM - M 458
192 DEGHAL djamel 03:08:27 V1M - M 257
193 DABE jean michel 03:08:29 V1M CM BM M 239
194 JUILLERAT MIKAEL 03:08:30 SEM - M 478
195 DARMET Natacha 03:08:36 SEF Chassieu Athle F 246
196 BERENGER Thomas 03:09:06 SEM Cevennes Trail Club M 68
197 NOASCONE Kevin 03:09:09 SEM RILLIEUX TRIATHLON M 636
198 MARTReS Julien 03:09:36 SEM sigvaris M 571
199 PEDRONO MICKAEL 03:09:38 SEM - M 844
200 AURELLE Alexandre 03:09:39 SEM - M 846
201 MARAUX Christophe 03:09:43 SEM - M 558
202 PLANSSON Gregorian 03:09:45 SEM - M 679
203 CASETTA Damien 03:09:46 SEM - M 153
204 BARATTI carlo 03:09:57 SEM - M 53
205 COURTOIS Romain 03:10:09 SEM - M 227
206 BOYER ALEXIS 03:10:17 SEM - M 121
207 BERTIN Ludovic 03:10:28 SEM Arve Athletisme M 81
208 ROBIN Jean Patrick 03:10:31 V2M - M 722
209 JACQUET benjamin 03:10:32 V1M - M 455
210 BOLE Romain 03:10:34 SEM - M 99
211 BOLE Thierry 03:10:34 SEM - M 851
212 CATCEL PHILIPPE 03:10:45 V1M - M 158
213 NAVET Frederic 03:10:45 V1M - M 631
214 MAIRE Stephane 03:11:11 SEM - M 894
215 TURBY Gilles 03:11:19 V1M Furets d'Eiffage M 809
216 WAWRZYNIAK Laurent 03:11:34 SEM - M 837
217 QUELIN Arnaud 03:11:34 SEM - M 701
218 MAGNAN Stephane 03:11:38 V1M FOULEE VOURLOISE M 893
219 FERE Sebastien 03:11:45 SEM - M 340
220 MATHEY Thierry 03:11:52 V1M ASC MIONNAY M 577
221 ROUSSEAU antoine 03:11:56 V2M - M 732
222 MARTIN LAURENT 03:12:01 V1M - M 567
223 GOUBEAU Jeremie 03:12:13 SEM - M 408
224 GUEDAT laurent 03:12:25 SEM - M 883
225 GAUTHIER Yann 03:12:26 SEM - M 390
226 NEUMANN MYRIAM 03:12:38 SEF Entente Sud Lyonnais F 632
227 VINCENT stephane 03:12:50 SEM - M 829
228 MAKHLOUF Luc 03:12:58 SEM - M 554
229 GAUTIER Gauderic 03:13:28 ESM - M 392
230 GRATTIER Johan 03:13:41 SEM - M 416
231 LAMBERTHOD GAEL 03:13:43 SEM - M 499
232 GOUTALLIER Robin 03:13:57 SEM - M 414
233 MASSON Benedicte 03:13:58 SEF - F 574
234 BRIOTET damien 03:14:03 SEM Crewstach M 124
235 SEGURA christophe 03:14:31 V1M RILLIEUX TRAITHLON M 758
236 JAYR ludovic 03:14:38 SEM - M 466
237 SALSON Pierre 03:14:48 SEM - M 749
238 ROBIN DORIAN 03:14:52 SEM - M 721
239 COYNEL laurent 03:14:52 SEM - M 230
240 BOUILLON Laurent 03:14:52 V1M - M 854
241 KOWALSKA Herve 03:14:56 V1M - M 928
242 TABUTIN Jonathan 03:15:21 SEM AS GROUPE SFR M 776
243 TROUBETZKY Sylvain 03:15:33 SEM - M 805
244 CALARD GREG 03:15:36 SEM - M 139
245 DI NUCCI Nicolas 03:15:39 SEM - M 284
246 MINSSIEUX bruno 03:16:04 V2M - M 600
247 ROSNET Vincent 03:16:32 V1M - M 731
248 PASSOT philippe 03:16:53 V1M - M 653
249 PICHON Christophe 03:17:11 V2M - M 674
250 QUEMIN philippe 03:17:18 V1M - M 702
251 RAGJNEL Jean Luc 03:17:23 V1M - M 713
252 CHOLLETON Anne Sophie 03:17:30 SEF - F 199
253 TARDY nicolas 03:17:44 SEM - M 783
254 MORTREUX vincent 03:18:17 SEM - M 616
255 D'ABRIGEON Marie Laure 03:18:28 SEF - F 865
256 HENOT Stephane 03:18:28 V1M - M 886
257 DUPUPET laurence 03:18:33 V1F - F 309
258 JACOTIN thomas 03:18:36 SEM - M 454
259 BERNOLLIN Nicolas 03:18:51 SEM - M 76
260 GUILLOUX walter 03:18:56 V1M - M 434
261 PAILLET benoit 03:19:03 SEM - M 904
262 GAIGE Pierre 03:19:21 V1M - M 372
263 MONTESSUIS Herve 03:19:41 V1M - M 607
264 AHMED KADI Toufik 03:19:59 SEM AFA FEYZIN M 20
265 FOURCADE Benoit 03:20:01 V1M - M 875
266 PITIOT Damien 03:20:12 SEM - M 678
267 LE BIHAN Regis 03:20:14 V1M - M 511
268 DAUPHIN David 03:20:31 SEM - M 247
269 DUCHENE Guillaume 03:20:38 SEM TERRE DE RUNNING M 871
270 ARNAUDET Francois 03:20:46 V1M - M 35
271 CUINET Jean Francois 03:20:51 V1M - M 864
272 GODOT julien 03:20:51 SEM - M 403
273 GRIMBERT Frederic 03:20:52 SEM - M 420
274 JAVELLE Sylvie 03:20:59 SEF - F 950
275 COLOMBIER David 03:21:17 V1M - M 934
276 VEYRAND Brigite 03:21:27 V2F - F 825
277 MAGAND Bertrand 03:21:31 SEM - M 549
278 EVANNO Olivier 03:21:33 V1M MERGUEZ RUNNERS M 873
279 MONTAGNON julien 03:21:34 V1M - M 604
280 GARDET Pierre 03:22:02 V1M ATHLE COMPETITION M 383
281 MULLER Thibaut 03:22:02 SEM - M 624
282 MONTET Christine 03:22:06 V1F Gones Roses Running Team F 608
283 MOUDOUD Jean luc 03:22:24 V2M AFA FEYZIN M 619
284 BATTAULT Vincent 03:22:29 SEM CSBJ Athletisme M 60
285 ADAIN Nicolas 03:23:06 V1M - M 16
286 ISAAC EMMANUEL 03:23:18 SEM - M 887
287 BALANDRAU Didier 03:23:24 SEM ANNONAY TRIATHLON M 50
288 WEISBUCH Alexander 03:23:30 V1M Bron'z'amis M 839
289 VERICEL HERVE 03:23:44 V1M AC TASSIN M 823
290 BAUDET Pierre 03:23:51 SEM - M 61
291 GINESTE Alain 03:23:52 SEM - M 397
292 MYARD Aurelien 03:23:56 SEM - F 629
293 PORRAS Florent 03:24:02 SEM ASVEL ATHLETISME M 688
294 GOURY didier 03:24:04 V2M ASVF Villefontaine M 412
295 GOUJON Francois 03:24:27 V2M - M 411
296 JOUTY Pierre 03:24:30 V1M - M 927
297 DODIN Frederic 03:24:33 V1M - M 290
298 ROUSSET patrick 03:24:46 V2M - M 735
299 DESPROGES GOTTERON Cyril 03:25:01 V1M - M 279
300 BUYER Gregory 03:25:27 SEM - M 857
301 NACHEF FREDERIC 03:25:35 V1M - M 901
302 LABRANQUE Laurence 03:25:36 SEF - F 493
303 TORRE david 03:25:41 V1M - M 800
304 LOCOGE Romain 03:25:49 SEM GR69 M 541
305 JOANDEL Adrien 03:25:49 SEM - M 471
306 SAISON julien 03:26:11 SEM - M 745
307 TRICHARD Guillaume 03:26:17 SEM Crewstach M 920
308 MOREIRA yvan 03:26:24 SEM - M 611
309 CHAUVIRE PIERRE 03:26:30 SEM - M 186
310 PIATON Loic 03:26:36 SEM Les Trailers des Aravis M 670
311 BRES Stephane 03:26:38 V1M - M 122
312 MARCHAND HERVE 03:27:11 V2M - M 560
313 CHOLLETON Robert 03:27:14 V3M - M 198
314 GRAJDURA Annick 03:27:46 V1F - F 882
315 GRACA Stephane 03:27:47 SEM - M 880
316 DELRUE william 03:27:59 V1M - M 263
317 DESGRANGES Maurice 03:28:19 V1M - M 275
318 MARTIN Pascal Marc 03:28:26 V1M RANDO NATURE VILLETTE M 896
319 DOIRET jerome 03:28:32 SEM - M 291
320 NAVARRO CATHERINE 03:28:40 V1F COTE ROANNAISE RAID AVENT F 630
321 TOURNISSOUX Thierry 03:28:48 V1M - M 802
322 GUILBERT Emmanuel 03:28:57 V1M COURIR EN DOMBE M 429
323 LABAUNE Christophe 03:29:01 SEM - M 489
324 GUILLET Jean Baptiste 03:29:06 SEM - M 431
325 JAMOT gerard 03:29:15 V2M - M 459
326 THIEBAUT benoit 03:29:21 SEM - M 793
327 PREMOSELLI Nicolas 03:29:22 V1M - M 694
328 SOTO Leonardo 03:29:26 V1M - M 769
329 BARRET MARTIAL 03:29:31 SEM Cercle de l'aviron de Lyo M 57
330 BERNARD MELANIE 03:29:40 SEF - F 73
331 GAILLARD Pierre 03:29:47 SEM - M 373
332 DENAVIT Maxime 03:30:03 SEM - M 264
333 BERTRAND Zian 03:30:12 SEM L.A.C M 83
334 GAILLARD gael 03:30:13 SEM - M 374
335 TISSOT michel 03:30:13 V3M trailoutdoor69 M 799
336 SCUTURICI Vasile 03:30:17 V1M - M 947
337 VANNIEUWENHUYZE pascal 03:30:27 V2M - M 921
338 FULLERINGER Aymeric 03:30:27 SEM - M 366
339 DELAVALOIRE THIERRY 03:30:29 V2M - M 261
340 GUITTON Jean Paul 03:30:38 V2M RANDO NATURE VILLETTE M 436
341 TOURNIER Mickael 03:30:39 SEM Handisport Lyonnais M 801
342 AUCLER lionel 03:31:09 SEM - M 40
343 FAYOLLE FRANCK 03:31:17 SEM - M 334
344 URREA Pascal 03:31:43 V1M - M 813
345 STEYER philippe 03:31:52 V1M - M 918
346 BAUDET Francis 03:31:58 V2M - M 942
347 CHATAIGNON Pierre Luc 03:32:06 SEM Evasion VTT genilac M 179
348 NEKAZ cedric 03:32:28 SEM - M 903
349 NUGUET CLEMENT 03:32:47 SEM - M 640
350 LANNUZEL JEAN YVES 03:32:47 V1M courir nature st jean de M 500
351 PESENTI Clement 03:32:52 SEM - M 664
352 GARDETTE FREDERIC 03:33:06 SEM - M 384
353 JULIEN guy 03:33:07 V2M spiridon aveyron M 479
354 VIGIER fred 03:33:09 V1M - M 826
355 GILLET manuel 03:33:14 SEM - M 396
356 LOPEZ Christian 03:33:17 SEM - M 892
357 PONCET georges 03:33:28 V3M ESL FRANCHEVILLE M 684
358 MAGHERINI Philippe 03:33:45 V1M - M 550
359 COELHO LUCIEN 03:34:04 SEM - M 209
360 POMPOGNAT CLAIRE 03:34:07 V1F - F 683
361 BOUZIGON Patricia 03:34:11 V1F VOLODALEN F 118
362 LAVEUR jean michel 03:34:13 V1M - M 509
363 LELIEVRE STEPHANE 03:34:23 V1M - M 891
364 BARTHOLIN Laurent 03:34:25 SEM - M 58
365 ADGHAILI LAHCEN 03:34:26 SEM - M 17
366 OGIER Mathias 03:34:33 SEM - M 643
367 CAILLEAU Benoit 03:34:35 SEM - M 137
368 CHAMBERLAND Gregory 03:34:38 SEM - M 167
369 KOCH frederic 03:35:00 SEM - M 485
370 DUBOIS stephane 03:35:00 V1M - M 298
371 MASSON DAVID 03:35:09 V1M - M 897
372 DULBECCO Laurent 03:35:13 SEM - M 305
373 BERLIOZ xavier 03:35:18 SEM - M 71
374 MARTINEZ Fabienne 03:35:32 V1F - F 570
375 LARUE BERNARD Stephane 03:35:48 SEM - M 502
376 CHARRIER JEAN MARC 03:35:59 V2M - M 175
377 ESTeOULE BADO Laurent 03:36:06 V1M - M 322
378 RAJON Olivier 03:36:23 V1M - M 714
379 LONGPRe Martin 03:36:27 V1M - M 543
380 VAREILLES Bruno 03:36:28 SEM - M 821
381 CASARA JEROME 03:36:32 SEM - M 152
382 CHaTELLIER Julien 03:36:32 SEM GIOMI/CIAE M 203
383 MARCHAND Alexis 03:36:44 SEM - M 561
384 CORBEL Jean Yves 03:36:52 SEM - M 219
385 GOIFFON Jean Christophe 03:36:55 SEM - M 404
386 MENAGE Herve 03:37:15 SEM - M 587
387 GARCIA MARIE FRANCE 03:37:18 V2F ATHLE COMPETITION F 382
388 VARILLON Robert 03:37:29 V2M TEAM RAID BULLES M 922
389 SCHONFELD Jerome 03:37:46 SEM - M 916
390 MERCIER Guy 03:38:08 V2M - M 949
391 MOREAU Sophie 03:38:08 V1F - F 609
392 BAYARD Benoit 03:38:15 SEM FAC Andrezieux M 62
393 DEVOS hugues 03:38:22 V1M - M 281
394 CREUZET Laurent 03:38:47 V1M - M 863
395 MAUPAS MICHEL 03:38:55 V2M S.P.A.C M 581
396 LEPINAY max 03:39:01 V1M - M 529
397 DUQUESNE Vincent 03:39:02 SEM - M 310
398 TAGMI KARIM 03:39:04 V1M SCAC M 777
399 CARRAT Alain 03:39:22 V2M - M 146
400 GABUT mathieu 03:39:39 SEM - M 369
401 PLOTON Romain 03:39:44 SEM - M 951
402 GUIDE jerome 03:39:45 SEM - M 428
403 LETARD stephane 03:39:52 V1M - M 532
404 ROMIEU Denis 03:40:08 V1M CLUB SPORTIF CACL M 729
405 RAFFIN Emmanuel 03:40:31 V1M - M 711
406 BARBEAU Simon 03:40:40 SEM - M 55
407 GUERIN Patrice 03:41:09 SEM trailoutdoor69 M 424
408 TISSOT david 03:41:09 SEM trailoutdoor69 M 798
409 MAZUIT Sebastien 03:41:15 SEM - M 584
410 PICHON Florent 03:41:26 SEM athletic clubtassin M 675
411 PHELIPPEAU Daniel 03:41:26 V2M - M 669
412 GROSJEAN Cathy 03:41:31 V1F Crapahut F 421
413 PUYMARTIN Claude 03:41:36 V3M CAP'QUINCIEUX M 700
414 AMALRIC JACQUES 03:41:43 V3M - M 26
415 FULBERT Jean Louis 03:41:46 V3M - M 365
416 TURPIN louis 03:42:03 V1M - M 810
417 MESSAZ HERVE 03:42:18 V2M - M 591
418 RASPILLERE Pascal 03:42:23 V2M - M 911
419 DENUIT Benjamin 03:42:26 SEM - M 268
420 CHAVATTE gauthier 03:42:46 SEM - M 188
421 CANAL Vincent 03:43:03 SEM - M 859
422 AGRO Genevieve 03:43:07 V2F running club de mably F 18
423 AGUILERA Laurent 03:43:07 SEM - M 19
424 MEUNIER patrick 03:43:14 V2M - M 593
425 CLARENNE JOEL 03:43:26 V2M - M 206
426 TROMPARENT ludovic 03:43:27 V1M - M 804
427 MECHERI OLIVIER 03:44:03 V1M - M 585
428 BON Dominique 03:44:03 V2M Bron'z'amis M 852
429 THENET JEAN MICHEL 03:44:08 V2M - M 789
430 COMMENT alexandre 03:44:19 V1M - M 216
431 WALOCH Marc 03:44:23 SEM - M 836
432 BOTTERON Sylvain 03:44:24 V1M - M 110
433 DJEBIRI Christophe 03:44:31 SEM - M 287
434 JEAN christian 03:44:48 V1M - M 467
435 BROSSARD Didier 03:45:12 V1M Saone Mont d'Or SMON M 855
436 TALLEGAS Isabelle 03:45:15 V1F - F 778
437 DEBIZE christophe 03:45:34 SEM FR ANSE M 252
438 BOMBERAULT Gerald 03:45:57 V1M - M 100
439 CRETINON PATRICK 03:46:10 V2M - M 232
440 DARLET louis 03:46:25 V1M - M 245
441 BASSET Xavier 03:47:04 SEM - M 59
442 DE MARCO matthieu 03:47:05 SEM - M 250
443 CHALIEUX jerome 03:47:05 V1M COUREURS OUEST LYONNAIS M 165
444 GUICHARD Bruno 03:47:06 SEM - M 427
445 BERNHARD Laurence 03:47:06 SEF - F 75
446 MOREAU Pascal 03:47:08 V1M - M 610
447 PENINGUY Stephane 03:47:11 V1M - M 907
448 STAUFFER Emeric 03:47:16 SEM - M 771
449 HUMBERT Jean Fabien 03:47:16 SEM - M 448
450 FOUQUET Aurelie 03:47:22 SEF - F 354
451 JULIEN LAFERRIERE Hubert 03:47:39 V1M - M 480
452 LOMBARD Thomas 03:47:41 SEM - M 542
453 DELAVELLE Eric 03:47:43 V1M - M 262
454 LECORNU ROMAIN 03:48:06 V2M - M 521
455 BIENASSIS xavier 03:48:08 SEM - M 88
456 SERS Florence 03:48:11 SEF - F 763
457 VACHET PHILIPPE 03:48:13 V1M - M 814
458 BONNEAU jean louis 03:48:28 V2M ALSIP M 105
459 CAMBRON EMMANUEL 03:48:33 V1M - M 141
460 DUCHENE Jean Baptiste 03:48:36 V1M - M 301
461 BONTEMPS Sebastien 03:48:56 V1M - M 108
462 MARRON JENNIFER 03:48:56 SEF - F 564
463 CARTIER Arnaud 03:49:04 SEM - M 151
464 CHORIER Celine 03:49:17 SEF - F 200
465 CHALIEUX nicolas 03:49:18 V1M COUREURS OUEST LYONNAIS M 164
466 LAURENT Arnaud 03:49:19 V1M - M 507
467 SEMPORE PATRICK 03:49:19 SEM - M 760
468 ARNOUX Jean christophe 03:49:19 SEM - M 36
469 MANHES jc 03:49:24 V3M - M 556
470 LOUAT Jean Christophe 03:49:42 V1M Saone Mont d'Or SMON M 544
471 BENESSIS Stephane 03:49:56 SEM - M 843
472 RODARY Kevin 03:50:16 SEM - M 724
473 FAGUET VINCENT 03:50:17 V1M - M 325
474 DAMBRE Maxime 03:50:36 V2M AUCUNE M 242
475 ESTEOULE BADO Catherine 03:51:23 V1F - F 321
476 HELLOT Guillaume 03:52:02 SEM - M 884
477 BRUN Pascal 03:52:10 V1M - M 129
478 GALET Nicolas 03:52:40 SEM - M 378
479 JOOS Pascal 03:53:08 V1M - M 472
480 EGRAZ JEAN MICHEL 03:53:22 V1M - M 316
481 VIGNON Didier 03:53:39 V1M - M 827
482 KOWAL benjamin 03:53:41 SEM trailoutdoor69 M 486
483 MOREL thierry 03:53:47 V1M - M 612
484 GARRO Boris 03:54:03 SEM - M 386
485 CASSIN Lionel 03:54:12 V1M Bron'z'amis M 154
486 MULLER Genseric 03:54:22 SEM - M 625
487 CASTEL Philippe 03:54:27 V1M du Suzon ? la Vareze M 157
488 GUIOT Violaine 03:54:30 SEF - F 435
489 RIVIER JEROME 03:54:55 SEM - M 913
490 BROQUEREAU Ludovic 03:56:02 V1M CAF LYON M 126
491 ISEBE William 03:56:03 SEM - M 450
492 BROCHIER Benoit 03:56:38 SEM - M 125
493 MOLLARD Alain 03:56:39 V1M - M 602
494 POIRAUD Jerome 03:57:01 V1M - M 681
495 CADART Arnaud 03:57:01 SEM TEAM RAID LIGHT M 136
496 COURCIER Cyrielle 03:57:05 SEF - F 223
497 COURTE Sylvain 03:57:05 SEM - M 225
498 VEBRET Alan 03:57:56 SEM - M 822
499 SIMONOT David 03:57:59 SEM AJT REYRIEUX M 917
500 JOURDAN philippe 03:58:00 V2M - M 476
501 LEFRANC Gaetane 03:58:00 SEF SRT F 525
502 GALIANA Delphine 03:58:01 SEF SRT F 379
503 DAURAT Patrick 03:58:29 V1M - M 248
504 DUPERRIER Jean Luc 03:58:32 V2M - M 932
505 CHeTELAT JARD Jessica 03:59:00 SEF - F 204
506 DENIS Guillaume 03:59:06 SEM - M 267
507 FAIVRE RAMPANT KEVIN 03:59:15 SEM - M 328
508 MORTESSAGNE Claire 03:59:19 SEF AVOC F 615
509 CRONENBERGER HERVE 03:59:50 SEM - M 234
510 REMY Sullivan 03:59:59 SEM - M 933
511 MALATRAY Cyril 04:00:13 SEM - M 555
512 VINCENT Cyril 04:00:40 SEM - M 830
513 FRANCHET Renaud 04:01:25 SEM - M 358
514 NONCLE remi 04:01:28 SEM TEAM RAID LIGHT M 638
515 CHARRIER Sandrine 04:01:30 SEF - F 176
516 CAMBON Florent 04:01:34 SEM - M 140
517 RePULLeS denis 04:01:36 V1M - M 743
518 HENRICH christian 04:01:56 SEM Essey Les Nancy M 439
519 BOUCHARD VINCENT 04:01:58 SEM - M 112
520 CAVALLI sandra 04:02:09 V1F - F 160
521 CHAVY Jacques 04:02:19 V3M TRIATHLON MACON CLUB M 861
522 BERGER francois 04:02:36 V2M ASPTT LYON M 70
523 BERRUYER claude 04:02:42 V2M - M 77
524 GREE Charline 04:02:43 SEF - F 418
525 COUDRAY guillaume 04:03:25 SEM - M 222
526 CARRIE Loic 04:03:25 SEM - M 147
527 JEUNE MAUD 04:03:26 SEF - F 470
528 CHAMPIGNY Anne Laure 04:03:27 SEF AS AREVA LYON F 168
529 LAFFONT Hugues 04:04:24 V2M - M 495
530 DURIAUD Denis 04:04:31 V3M courir libre en tricastin M 312
531 CARRON DIT JEANTON brigitte 04:04:38 V2F - F 149
532 BONHOMME Patricia 04:04:54 V1F - F 853
533 PEREZ CHLOE 04:04:54 SEF - F 658
534 AUDOUIN CAROLINE 04:05:26 V1F - F 42
535 AUDOUIN christophe 04:05:26 V1M - M 43
536 MEUNIER gisele 04:05:35 V2F - F 594
537 DAILLY christophe 04:05:59 SEM - M 240
538 BUIRON Jean Philippe 04:07:05 V1M - M 133
539 REBOURSEAU Olivier 04:07:11 SEM - M 717
540 PERRIN BRUNO 04:08:30 V2M - M 663
541 BERTHET Daniel 04:08:31 V3M - M 80
542 DUFOURNEL Fabien 04:08:35 SEM - M 302
543 QUENDOLO edi 04:09:37 V2M AS AREVA LYON M 703
544 HOUDY Sylvaine 04:10:28 SEF - F 445
545 VERNOUX corinne 04:10:40 V2F VIRIAT MARATHON F 824
546 CHAMBON Didier 04:10:40 V3M - M 941
547 CASTEJON stephane 04:12:29 V1M trailoutdoor69 M 155
548 TOUX Laurent 04:13:30 V1M - M 803
549 BOUCHAMI Rachid 04:14:45 SEM - M 954
550 MORET Pascal 04:16:59 V1M - M 614
551 GUERRY Christophe 04:16:59 SEM - M 426
552 MUNARI Arnaud 04:16:59 SEM - M 626
553 MADDIESON Ian 04:17:13 V4M Albuquerque Road Runners M 548
554 LEQUIEN Philippe 04:17:23 V1M - M 530
555 EZERZER Christine 04:17:45 V2F - F 323
556 GAUTIER Vincent 04:17:45 SEM - M 391
557 THEVENET Patrice 04:19:08 SEM sigvaris M 791
558 HAFFNER Bernard 04:19:10 V3M - M 437
559 POPILLE STEPHANE 04:19:11 SEM - M 687
560 POULLARD Sylvain 04:19:11 SEM - M 691
561 MURARD Fabien 04:21:16 V1M - M 627
562 JARLOT Fanny 04:21:16 SEF - F 462
563 LEQUIEN Xavier 04:22:10 V1M - M 531
564 FAITOUT ERIC 04:24:09 V1M TEAM RAIDLIGHT M 327
565 TABEAU Dorian 04:24:13 SEM - M 775
566 ODIN sylvain 04:24:26 SEM - M 641
567 FRACHON Thomas 04:24:27 SEM - M 952
568 CHASSIGNOL Stephane 04:25:22 V1M AS CALUIRE M 178
569 JACQUOT Francois 04:26:09 V1M - M 457
570 DOVIS Renaud 04:27:56 SEM - M 294
571 SAYAMANDARA Antoine 04:28:13 SEM - M 755
572 LAPOLE Thomas 04:30:16 SEM - M 501
573 BELDAME Cedric 04:30:53 SEM - M 65
574 BERTRAND christine 04:32:25 V2F FR'ANSE F 85
575 LE ROUX HELENE 04:32:25 V1F - F 515
576 DENIS Jacques 04:32:27 SEM - M 265
577 RONDEPIERRE sebastien 04:36:20 SEM - M 730
578 LAURE ludwig 04:38:01 SEM trailoutdoor69 M 506
579 SONDAG Patrice 04:38:31 V1M - M 953
580 BURGUN Pierre 04:40:40 SEM Gones Roses Running Team M 135
581 DU CASTEL Julie 04:45:18 SEF - F 297
582 GOUZY Dominique 04:45:19 V3M - M 415
583 WINTZER WEHEKIND justin 04:47:05 SEM - M 841
584 MACAIRE alain pierre 05:25:49 V1M - M 547
585 MEZARD Fabien 05:26:20 SEM - M 595
586 CORDONNIER Remi 05:29:41 SEM - M 220
587 MONTANT chrystel 05:32:53 V1F Athleform' 42 F 606
588 DAMBRE Sebastien 05:33:56 SEM - M 243
589 LASSERTEUX Gerard 05:34:49 V1M - M 503
590 DUGAS Yves 05:37:57 V3M CORCY ENDURANCE M 303
591 FOULON Pierre Yves 05:41:48 V1M - M 353
592 LUCUIX Jean Marie 05:52:08 V2M - M 545
593 GONZALEZ nadine 05:56:13 V2F - F 406
594 FLORA Gregoire 05:58:34 SEM - M 345
595 SOUCHON maxence 05:59:44 SEM - M 770
596 TARAZONA LAURENT 06:00:59 V1M - M 779
597 PARASKIOVA Philippe 06:06:16 V2M - M 649
598 CARDIN Florent 06:11:04 SEM - M 143
599 BONNARD Sylvain 06:18:16 SEM - M 104


ReferencementCe site est listé dans la catégorie Sport : Sports extrêmes Dictionnaire
| Accueil | La Réunion  Vue du ciel | Météo | Cyclones | Volcan | Cirques de Mafate , Cilaos , Salazie | Photos Randonnées | Randonnées Réunion: Randos Espiègle , Courses montagne | Diagonale des Fous |  Marathon des Sables | Voyages Les stats du site | Fonds écran | Plan du site | Blog de runraid | Galerie photos Sport Réunion |